This is the latest recevied weather packets stored in our database for station/object SM0UQT-10. If no packets are shown the sender has not sent any weather packets the latest 10 day(s).
| Time | Temp. | Humidity | Pressure | Rain* | Wind** | Luminosity | Snow |
|---|---|---|---|---|---|---|---|
| 1777337111 | 25.56° C | 27% | 1023.5 hPa | - | - | - | - |
| 1777335359 | 25.56° C | 26% | 1023.5 hPa | - | - | - | - |
| 1777335310 | 25.56° C | 26% | 1023.5 hPa | - | - | - | - |
| 1777334480 | 26.11° C | 27% | 1023.4 hPa | - | - | - | - |
| 1777333509 | 25.56° C | 27% | 1023.3 hPa | - | - | - | - |
| 1777332680 | 25.56° C | 26% | 1023.4 hPa | - | - | - | - |
| 1777332608 | 25.56° C | 26% | 1023.4 hPa | - | - | - | - |
| 1777331708 | 25.56° C | 27% | 1023.5 hPa | - | - | - | - |
| 1777329979 | 25.56° C | 28% | 1023.3 hPa | - | - | - | - |
| 1777310110 | 25° C | 26% | 1021.9 hPa | - | - | - | - |
| 1777307442 | 25° C | 26% | 1021.4 hPa | - | - | - | - |
| 1777305647 | 24.44° C | 26% | 1021.5 hPa | - | - | - | - |
| 1777304708 | 23.33° C | 25% | 1021.3 hPa | - | - | - | - |
| 1777303806 | 24.44° C | 26% | 1021.2 hPa | - | - | - | - |
| 1777302037 | 20° C | 29% | 1021.3 hPa | - | - | - | - |
| 1777300976 | 25° C | 25% | 1021.2 hPa | - | - | - | - |
| 1777300075 | 24.44° C | 26% | 1021 hPa | - | - | - | - |
| 1777299272 | 16.67° C | 24% | 1021 hPa | - | - | - | - |
| 1777299230 | 16.67° C | 24% | 1021 hPa | - | - | - | - |
| 1777298330 | 17.22° C | 24% | 1021 hPa | - | - | - | - |
| 1777296529 | 18.33° C | 24% | 1020.8 hPa | - | - | - | - |
| 1777295629 | 18.33° C | 25% | 1021.1 hPa | - | - | - | - |
| 1777294729 | 22.78° C | 28% | 1021.1 hPa | - | - | - | - |
| 1777292929 | 22.78° C | 28% | 1021 hPa | - | - | - | - |
| 1777291129 | 23.33° C | 27% | 1020.8 hPa | - | - | - | - |
* Rain since midnight (hover to see other rain measurements)
** Current wind speed in m/s (hover to see current wind gust speed)